Location: Balaclava NSW 2575, Australia
(34.4510°S, 150.4953°E)
Time: 15:46:12
(UTC+10:00)

Envisat - Pass Details

Date: 20 May 2021
Orbit: 764 x 766 km, 98.1° (Epoch: 18 June)

Event Time Altitude Azimuth Distance (km) Brightness Sun altitude
Rises 03:40:26 0° 47° (NE) 3,223 6.8 -38.4°
Reaches altitude 10° 03:43:08 10° 61° (ENE) 2,306 6.0 -37.8°
Maximum altitude 03:47:04 23° 112° (ESE) 1,596 5.1 -37.0°
Enters shadow 03:48:02 22° 129° (SE) 1,651 5.1 -36.8°
